Weather History for Jordan, MT

Change the Weather History Date:

Tuesday, December 18, 2012

  Actual Average Record
Temperature  
Mean Temperature 26 °F 18 °F  
Max Temperature 34 °F 31 °F 61 °F (1979)
Min Temperature 18 °F 5 °F -38 °F (1983)
Degree Days  
Heating Degree Days 39 47  
Month to date heating degree days 631 807  
Since 1 July heating degree days 2401 2825  
Cooling Degree Days 0 0  
Month to date cooling degree days 0 0  
Year to date cooling degree days 728 421  
Moisture  
Dew Point 17 °F    
Average Humidity 65    
Maximum Humidity 85    
Minimum Humidity 45    
Precipitation  
Precipitation 0.03 in 0.01 in 0.20 in (1916)
Month to date precipitation 0.12 0.14  
Year to date precipitation 7.81 12.52  
Snow  
Snow 0.00 in - - ()
Month to date snowfall 0.0  
Since 1 July snowfall 0.0  
Snow Depth 0.00 in    
Sea Level Pressure  
Sea Level Pressure 29.67 in    
Wind  
Wind Speed 16 mph (WNW)    
Max Wind Speed 32 mph    
Max Gust Speed 43 mph    
T = Trace of Precipitation, MM = Missing Value Source: NWS Daily Summary

Daily Weather History Graph

Daily Weather History Graph

Search for Another Location

Airport:

Trip Planner

Search our weather history database for the weather conditions in past years. The results will help you decide how hot, cold, wet, or windy it might be!

Date:

Astronomy

Dec. 18, 2012 Rise Set
Actual Time 7:50 AM MST 4:18 PM MST
Civil Twilight 7:14 AM MST 4:54 PM MST
Nautical Twilight 6:35 AM MST 5:33 PM MST
Astronomical Twilight 5:58 AM MST 6:11 PM MST
Moon 11:09 AM MST (12/18) 11:12 PM MST (12/18)
Length of Visible Light 9h 39m
Length of Day
8h 28m
Waxing Crescent, 35% of the Moon is Illuminated
Dec 18
Waxing Crescent
Dec 19
First Quarter
Dec 28
Full
Jan 4
Last Quarter
Jan 11
New

Hourly Weather History & Observations

Time (MST) Temp. Windchill Dew Point Humidity Pressure Visibility Wind Dir Wind Speed Gust Speed Precip Events Conditions
12:48 AM 26.1 °F 20.5 °F 19.9 °F 78% 29.49 in - WNW 4.6 mph - N/A   Unknown
1:48 AM 30.9 °F 22.8 °F 19.9 °F 64% 29.52 in - West 9.2 mph - N/A   Unknown
2:48 AM 28.0 °F 20.8 °F 18.0 °F 66% 29.54 in - West 6.9 mph - N/A   Unknown
3:48 AM 30.0 °F 21.7 °F 16.0 °F 56% 29.55 in - WSW 9.2 mph - N/A   Unknown
4:48 AM 30.0 °F 21.1 °F 15.1 °F 54% 29.56 in - West 10.4 mph - N/A   Unknown
5:48 AM 33.1 °F 20.6 °F 19.0 °F 56% 29.57 in - West 23.0 mph 32.2 mph N/A   Unknown
6:48 AM 33.1 °F 22.2 °F 17.1 °F 52% 29.57 in - WSW 17.3 mph - N/A   Unknown
7:48 AM 30.9 °F 18.1 °F 21.9 °F 69% 29.60 in - West 21.9 mph 29.9 mph N/A   Unknown
8:48 AM 28.9 °F 16.1 °F 25.0 °F 85% 29.63 in - West 19.6 mph 27.6 mph 0.02 in   Unknown
9:48 AM 32.0 °F 19.2 °F 19.9 °F 61% 29.64 in - West 23.0 mph 36.8 mph N/A   Unknown
10:48 AM 33.1 °F 20.3 °F 18.0 °F 54% 29.64 in - WNW 24.2 mph 41.4 mph N/A   Unknown
11:48 AM 34.0 °F 21.8 °F 17.1 °F 50% 29.64 in - WNW 23.0 mph 33.4 mph N/A   Unknown
12:48 PM 34.0 °F 21.8 °F 18.0 °F 52% 29.65 in - WNW 23.0 mph 35.7 mph N/A   Unknown
1:48 PM 34.0 °F 21.8 °F 16.0 °F 48% 29.65 in - WNW 23.0 mph 29.9 mph N/A   Unknown
2:48 PM 34.0 °F 21.8 °F 15.1 °F 46% 29.68 in - WNW 23.0 mph 29.9 mph N/A   Unknown
3:48 PM 32.0 °F 19.8 °F 14.0 °F 48% 29.69 in - WNW 20.7 mph - N/A   Unknown
4:48 PM 28.0 °F 17.5 °F 17.1 °F 63% 29.71 in - NW 12.7 mph - N/A   Unknown
5:48 PM 24.1 °F 11.0 °F 18.0 °F 77% 29.75 in - NNW 16.1 mph - N/A   Unknown
6:48 PM 21.9 °F 6.5 °F 16.0 °F 78% 29.78 in - NW 20.7 mph - N/A   Unknown
7:48 PM 21.9 °F 8.2 °F 15.1 °F 75% 29.80 in - NW 16.1 mph 23.0 mph N/A   Unknown
8:48 PM 19.9 °F 5.7 °F 16.0 °F 85% 29.83 in - NW 16.1 mph - N/A   Unknown
9:48 PM 18.0 °F 6.9 °F 14.0 °F 84% 29.85 in - WNW 9.2 mph - N/A   Unknown
10:48 PM 19.0 °F 12.3 °F 16.0 °F 88% 29.86 in - WNW 4.6 mph - N/A   Unknown
11:48 PM 19.9 °F 7.3 °F 16.0 °F 85% 29.87 in - NW 12.7 mph - 0.01 in   Unknown